Wind_Speed
39 41 46 46 41 36 34 32 31 26 28 29 25 20 24 23 21 20 19 20 20 17 16 16 16 14 14 12 13 14 16 19 24 30 29 28 28 25 23 22 23 26 30
39 43 44 48 44 39 36 36 34 28 28 27 27 25 24 25 25 21 20 19 19 18 17 15 17 16 15 14 15 14 16 17 22 26 29 29 29 26 25 27 28 30 33
42 40 44 48 47 45 42 39 36 32 31 31 27 26 24 23 24 23 21 17 16 16 16 16 16 17 20 19 19 20 20 21 22 25 29 30 32 31 31 32 34 35 37
45 41 41 44 48 46 44 41 40 35 35 34 32 29 26 25 24 25 23 21 19 20 20 21 21 20 21 22 23 24 24 25 25 26 28 30 31 31 34 36 41 40 42
46 45 42 39 42 43 45 42 42 40 38 37 34 31 30 28 27 26 25 23 23 23 23 25 24 24 23 24 25 26 25 26 26 27 28 29 31 35 36 41 44 45 35
45 45 44 40 37 38 41 42 41 43 43 42 39 37 32 31 32 30 28 27 29 30 30 28 27 27 27 26 26 26 25 26 26 27 29 31 34 36 40 44 41 30 32
45 42 43 42 41 38 36 37 39 41 42 45 46 44 42 38 36 32 30 30 31 30 29 29 30 31 30 29 28 27 27 26 27 27 32 34 38 37 37 34 27 25 26
41 41 39 41 42 39 38 36 34 36 39 39 39 39 41 43 41 37 33 33 32 31 31 32 33 32 32 33 35 35 35 34 34 30 32 32 31 31 29 31 25 24 23
31 32 35 37 36 35 34 34 33 31 29 30 34 34 33 31 31 35 35 33 31 30 30 30 30 33 32 31 35 39 39 37 34 29 29 30 28 24 22 24 23 23 26
29 28 26 27 24 27 26 29 28 22 27 33 32 30 33 33 31 32 33 28 29 30 27 28 28 31 30 29 31 32 34 35 33 27 24 24 25 27 27 29 25 20 21
9 13 11 13 22 17 17 21 22 26 19 20 22 18 18 23 25 22 21 20 26 26 25 20 22 21 21 24 26 27 28 33 30 29 26 20 20 23 24 23 23 21 17
10 28 18 9 24 18 19 24 15 9 20 18 16 17 10 34 39 28 18 25 26 28 28 24 20 17 18 23 21 15 12 13 15 17 17 18 22 20 16 15 15 15 15
20 8 15 26 24 20 21 19 14 18 21 25 14 24 25 17 27 28 27 25 25 27 25 21 17 9 7 7 11 23 17 16 18 20 19 18 22 19 19 18 16 17 18
10 10 11 10 10 9 7 7 9 12 14 16 17 23 24 26 20 20 21 18 18 19 18 18 17 16 19 20 20 22 17 14 14 14 20 23 22 19 17 18 18 17 16
10 10 9 10 11 12 12 9 8 8 8 10 11 15 16 15 12 12 12 13 12 10 11 12 12 11 12 13 12 16 19 20 19 20 21 22 21 22 20 20 20 19 17
17 16 13 14 14 14 13 13 12 11 9 6 7 9 9 8 7 5 2 3 4 5 5 5 5 5 8 10 12 14 18 19 19 17 18 19 21 23 23 22 19 17 18
12 14 13 14 14 11 8 7 8 9 9 6 7 8 9 10 8 4 4 7 8 9 8 8 10 11 12 13 14 14 13 13 15 15 15 15 15 15 16 17 16 15 14
5 4 5 5 6 6 5 4 4 5 4 3 3 3 3 4 6 8 9 9 9 10 10 11 12 14 15 14 14 14 13 13 12 12 13 13 14 15 14 15 15 15 15
3 2 2 4 2 2 1 2 4 3 3 4 3 4 7 9 10 10 7 9 10 11 9 9 10 12 13 13 13 13 13 13 13 12 12 13 14 15 15 14 14 15 16
4 7 8 7 5 4 4 4 4 4 6 6 4 3 7 8 8 7 7 9 11 12 11 9 11 12 12 12 12 12 11 11 12 13 13 13 14 15 15 15 15 17 17
4 7 9 10 11 12 12 12 9 7 6 7 9 8 8 9 10 10 10 10 12 13 11 9 9 11 13 13 12 12 10 10 11 12 14 15 16 16 16 16 16 15 16
8 7 8 8 9 10 11 12 13 13 12 12 11 14 13 12 11 13 12 11 11 10 10 10 9 10 12 13 14 13 10 11 13 14 14 15 15 16 16 16 16 16 17
18 15 12 10 11 13 14 14 15 16 15 10 12 14 17 19 17 12 14 14 12 13 15 13 12 12 9 11 12 13 10 11 12 13 15 17 17 17 16 16 16 17 16
17 18 19 21 20 16 14 12 10 10 8 6 2 5 4 4 12 20 18 16 14 13 12 15 15 14 11 10 10 11 11 10 12 13 14 17 18 17 17 17 17 17 18
15 16 18 20 21 22 20 15 12 11 10 10 10 7 7 7 4 2 2 8 6 15 14 15 18 17 14 15 15 15 11 9 9 11 11 13 16 18 19 20 20 19 19
13 14 13 15 17 18 18 17 16 15 14 12 12 16 15 13 12 17 16 14 14 9 7 12 14 17 20 21 21 21 19 15 13 13 12 11 13 16 18 19 19 19 18
Wind_Direction
219 217 216 217 219 223 227 228 230 234 232 238 232 232 244 243 243 249 263 264 259 263 265 265 266 271 275 290 292 292 294 297 298 301 306 314 315 320 322 324 326 329 331
221 218 220 219 220 224 227 229 232 238 230 231 236 245 249 248 239 247 261 262 259 259 264 272 278 276 279 281 289 291 292 296 301 304 307 314 315 319 319 321 326 329 331
221 221 220 222 223 224 228 230 232 236 230 234 236 240 250 233 234 242 254 260 259 263 269 271 275 278 272 273 277 283 285 288 289 293 298 303 306 311 314 319 325 327 326
222 222 224 225 225 226 229 229 232 232 235 234 237 240 243 247 240 244 253 259 261 265 270 272 273 272 274 277 280 285 285 289 292 296 298 300 304 307 313 320 323 326 327
224 223 225 228 229 230 232 231 232 232 235 236 241 247 247 248 247 245 251 257 261 264 270 272 273 275 277 279 282 284 286 289 292 294 297 301 301 306 313 318 319 322 322
227 229 228 229 231 234 235 236 237 236 235 239 242 247 248 250 254 254 256 263 267 268 271 269 269 271 272 274 276 276 279 284 286 288 293 295 299 304 309 311 315 321 319
234 233 232 232 234 237 240 239 241 241 241 243 245 248 252 255 255 256 258 264 268 266 269 270 268 267 268 271 270 273 274 276 277 286 289 293 299 302 305 308 313 311 309
238 237 235 235 237 240 244 245 246 248 248 248 250 251 250 252 254 258 258 263 260 264 268 270 275 278 276 275 274 274 274 276 278 285 289 292 293 299 302 301 300 296 295
232 229 240 238 240 242 246 251 256 261 263 261 255 252 253 253 255 254 260 259 263 267 274 283 284 285 282 283 283 279 278 281 280 281 286 289 294 301 298 302 302 292 293
212 216 223 231 243 252 250 250 251 262 270 264 250 244 243 239 240 246 253 257 277 276 279 287 285 287 291 290 288 288 283 282 277 284 280 282 286 294 290 289 297 296 291
131 196 202 243 241 228 251 275 270 290 294 251 235 222 224 250 247 250 247 273 281 278 287 292 304 297 293 284 279 282 286 286 278 274 288 296 312 309 297 282 288 294 289
358 252 207 268 243 232 264 261 258 313 282 275 226 296 275 231 260 247 233 256 267 268 278 278 303 316 310 291 285 274 271 272 271 273 285 310 318 314 306 303 295 291 288
195 191 193 217 232 235 237 239 258 252 252 214 209 223 225 205 183 187 208 259 264 272 277 272 289 294 302 323 313 308 302 282 289 283 290 302 297 308 308 300 297 297 296
105 117 132 151 145 164 161 160 184 213 243 217 197 199 183 184 199 224 242 254 262 274 284 279 283 269 272 288 291 297 304 301 300 281 289 303 307 308 300 305 308 304 304
123 128 128 117 121 137 146 145 176 187 203 217 219 221 234 241 246 246 246 268 276 291 300 291 284 285 282 284 292 293 296 300 306 308 297 299 297 295 299 301 296 298 301
92 102 124 116 116 111 111 116 121 120 121 148 192 203 207 207 197 186 170 91 8 16 2 324 307 305 295 285 284 282 286 294 298 294 293 294 295 298 302 304 302 289 284
99 104 102 85 91 90 90 110 130 128 118 120 114 114 121 120 120 97 3 339 329 327 325 313 317 319 316 311 308 303 303 303 310 311 308 311 308 306 307 309 310 302 298
69 77 87 126 114 90 134 144 136 174 205 245 227 220 264 284 300 321 326 317 312 310 310 312 316 314 313 311 306 307 309 312 313 319 331 333 328 322 318 321 325 317 305
354 355 7 26 33 71 23 310 239 238 208 210 249 264 260 268 284 296 300 311 313 311 315 333 335 328 322 320 318 316 318 320 320 325 322 330 330 327 328 327 325 319 315
289 297 303 298 293 308 304 318 341 230 208 203 207 278 302 292 278 270 285 299 309 311 299 321 341 343 343 342 338 332 327 324 322 323 324 323 320 316 315 317 318 320 321
292 267 267 278 281 286 296 305 308 328 326 272 256 260 257 266 280 257 263 275 299 305 278 292 325 337 342 347 348 345 346 343 337 336 336 333 327 325 325 319 319 317 312
358 332 304 289 282 276 277 282 291 299 307 308 288 258 257 266 283 273 252 265 280 281 262 275 296 315 336 340 343 338 339 347 346 346 346 342 336 332 328 324 322 318 312
30 24 8 347 323 311 305 303 301 301 305 303 315 302 263 260 273 255 250 259 266 273 264 259 265 287 309 322 332 338 337 347 354 352 352 351 348 343 336 332 328 325 321
19 17 19 22 16 3 347 334 318 308 300 277 334 31 358 311 260 257 247 246 251 254 251 266 257 259 268 283 297 308 316 325 339 344 350 354 354 352 346 339 332 328 327
10 9 8 8 10 14 13 0 344 326 302 283 275 284 303 319 342 357 213 221 246 248 240 248 257 272 271 279 289 292 278 278 294 310 326 338 342 345 349 346 336 329 329
352 353 353 354 354 352 352 354 355 355 342 309 292 280 291 305 305 298 289 277 271 290 279 247 253 261 269 277 282 279 271 267 269 279 294 305 317 332 336 342 337 329 325
Height
1523 1528 1532 1537 1543 1547 1550 1554 1558 1560 1562 1565 1568 1569 1570 1573 1575 1576 1576 1576 1576 1576 1576 1576 1576 1577 1577 1576 1576 1576 1575 1574 1572 1567 1567 1566 1562 1561 1559 1557 1554 1550 1546
1517 1522 1527 1532 1538 1542 1545 1550 1554 1556 1559 1562 1565 1566 1567 1568 1570 1572 1572 1572 1572 1572 1573 1573 1573 1573 1573 1573 1572 1572 1572 1571 1568 1565 1562 1560 1559 1557 1554 1551 1548 1545 1540
1512 1517 1521 1525 1531 1534 1539 1544 1549 1552 1555 1558 1560 1562 1564 1565 1567 1568 1569 1569 1569 1569 1570 1569 1568 1569 1568 1568 1567 1566 1565 1564 1563 1561 1557 1555 1552 1551 1548 1546 1542 1539 1535
1506 1512 1516 1520 1524 1529 1534 1538 1543 1547 1551 1553 1555 1557 1559 1561 1563 1565 1566 1566 1565 1565 1565 1565 1565 1564 1564 1563 1563 1561 1560 1558 1557 1555 1553 1551 1548 1545 1543 1540 1535 1533 1527
1500 1506 1511 1516 1521 1526 1530 1534 1538 1542 1545 1548 1550 1552 1555 1556 1558 1559 1560 1560 1560 1560 1560 1560 1560 1560 1560 1558 1557 1555 1555 1553 1551 1549 1546 1544 1541 1539 1537 1535 1532 1528 1523
1493 1499 1507 1512 1517 1520 1524 1529 1533 1536 1538 1541 1544 1547 1549 1550 1552 1553 1554 1555 1556 1555 1554 1554 1554 1553 1552 1551 1551 1549 1548 1546 1544 1542 1540 1537 1535 1534 1531 1530 1528 1525 1518
1489 1494 1501 1507 1510 1514 1518 1523 1526 1529 1533 1534 1536 1540 1542 1544 1546 1548 1549 1549 1549 1549 1548 1548 1547 1546 1546 1544 1544 1542 1540 1539 1537 1536 1532 1531 1529 1529 1526 1524 1524 1520 1518
1485 1490 1494 1500 1504 1509 1514 1517 1520 1522 1526 1529 1531 1532 1533 1535 1538 1542 1543 1542 1541 1541 1540 1540 1540 1538 1539 1538 1535 1533 1532 1531 1529 1528 1526 1522 1522 1521 1521 1519 1518 1515 1516
1482 1486 1493 1495 1498 1503 1509 1513 1516 1518 1522 1524 1524 1525 1526 1527 1530 1534 1536 1537 1536 1535 1534 1534 1533 1530 1530 1529 1527 1525 1523 1523 1521 1520 1517 1516 1514 1514 1514 1513 1511 1509 1507
1477 1481 1485 1490 1496 1501 1505 1506 1509 1513 1513 1515 1514 1515 1516 1518 1519 1522 1527 1528 1530 1531 1530 1526 1525 1521 1519 1520 1518 1516 1514 1514 1513 1513 1511 1509 1507 1507 1507 1507 1505 1503 1501
1480 1480 1481 1488 1491 1494 1499 1501 1502 1504 1507 1509 1505 1510 1510 1510 1512 1515 1518 1521 1524 1526 1523 1519 1515 1511 1510 1511 1510 1509 1508 1507 1506 1505 1503 1501 1500 1499 1499 1497 1497 1497 1495
1472 1488 1482 1481 1490 1486 1487 1497 1497 1488 1501 1500 1493 1487 1499 1495 1499 1506 1511 1512 1518 1518 1516 1513 1508 1504 1504 1503 1502 1504 1502 1500 1499 1497 1495 1495 1494 1494 1493 1491 1492 1492 1491
1478 1473 1473 1482 1481 1479 1486 1488 1487 1490 1491 1498 1498 1494 1498 1496 1495 1492 1499 1509 1512 1510 1508 1505 1504 1499 1501 1502 1504 1504 1501 1497 1495 1492 1489 1488 1492 1488 1488 1489 1487 1487 1487
1476 1477 1482 1484 1477 1480 1483 1484 1488 1491 1493 1497 1497 1498 1498 1501 1499 1498 1501 1502 1504 1503 1503 1501 1497 1495 1498 1499 1499 1500 1500 1496 1491 1489 1485 1484 1484 1485 1486 1485 1483 1483 1482
1482 1483 1484 1480 1482 1483 1484 1486 1488 1491 1493 1494 1496 1496 1498 1496 1496 1496 1498 1500 1500 1499 1497 1495 1494 1492 1493 1494 1495 1495 1496 1492 1488 1487 1484 1483 1482 1482 1482 1480 1480 1479 1479
1484 1485 1485 1485 1487 1486 1485 1486 1490 1489 1491 1492 1493 1494 1494 1495 1496 1497 1498 1496 1497 1494 1493 1494 1493 1490 1492 1492 1492 1491 1492 1488 1485 1483 1483 1480 1479 1478 1476 1476 1475 1475 1475
1487 1488 1488 1489 1486 1486 1488 1491 1492 1492 1492 1493 1492 1494 1494 1495 1495 1495 1494 1494 1494 1494 1492 1492 1492 1491 1491 1490 1489 1488 1486 1483 1483 1481 1477 1476 1475 1474 1473 1473 1472 1471 1470
1490 1492 1492 1490 1488 1488 1489 1491 1490 1489 1489 1491 1493 1492 1491 1490 1491 1491 1491 1491 1492 1491 1491 1490 1489 1489 1489 1488 1488 1486 1483 1481 1479 1479 1478 1475 1474 1473 1472 1472 1471 1470 1468
1490 1491 1491 1489 1489 1489 1491 1492 1489 1486 1487 1491 1490 1489 1489 1489 1489 1490 1490 1490 1490 1489 1489 1489 1489 1489 1488 1487 1485 1483 1480 1478 1478 1476 1475 1474 1473 1472 1471 1469 1468 1468 1466
1488 1490 1489 1489 1489 1489 1489 1490 1491 1491 1488 1487 1486 1487 1488 1488 1488 1487 1487 1487 1487 1486 1487 1487 1487 1487 1486 1484 1481 1480 1478 1476 1476 1475 1473 1470 1469 1469 1468 1466 1465 1463 1462
1487 1488 1490 1488 1486 1485 1484 1483 1486 1488 1485 1482 1482 1482 1483 1485 1485 1484 1484 1484 1484 1484 1484 1485 1484 1484 1483 1481 1479 1478 1476 1475 1475 1474 1471 1468 1468 1467 1465 1464 1462 1460 1459
1484 1484 1485 1485 1485 1486 1486 1486 1485 1483 1483 1482 1481 1481 1480 1480 1479 1478 1479 1479 1480 1480 1480 1481 1481 1481 1479 1478 1476 1475 1474 1474 1472 1471 1468 1467 1466 1463 1461 1460 1459 1457 1455
1481 1480 1481 1478 1477 1475 1475 1475 1475 1475 1476 1476 1475 1474 1472 1473 1473 1473 1474 1475 1475 1476 1476 1476 1477 1476 1475 1474 1475 1474 1472 1471 1471 1469 1467 1465 1463 1461 1460 1457 1456 1454 1452
1483 1482 1479 1474 1472 1470 1469 1470 1470 1470 1470 1471 1470 1469 1470 1470 1469 1468 1468 1467 1468 1470 1471 1471 1472 1472 1472 1472 1471 1470 1470 1469 1468 1467 1465 1464 1462 1460 1458 1457 1454 1452 1450
1481 1479 1476 1474 1472 1471 1469 1468 1467 1469 1468 1467 1466 1465 1467 1469 1468 1466 1465 1460 1461 1463 1461 1463 1467 1468 1466 1466 1466 1466 1465 1465 1465 1464 1463 1461 1460 1458 1456 1454 1452 1449 1446
1481 1479 1478 1476 1474 1472 1471 1470 1470 1468 1466 1464 1462 1462 1462 1463 1461 1463 1462 1459 1456 1458 1456 1456 1458 1459 1461 1461 1460 1460 1460 1460 1460 1460 1459 1458 1457 1456 1454 1452 1449 1446 1444